Location: Barcelona
(41.3830°N, 2.1830°E)
Time: 15:43:28

ISS - Pass Details

Date: 15 March 2018
Orbit: 403 x 406 km, 51.6° (Epoch: 17 March)

Event Time Altitude Azimuth Distance (km) Brightness Sun altitude
Exits shadow 06:02:40 - 316° (NW) 1,580 -1.2 -12.2°
Reaches altitude 10° 06:02:58 10° 318° (NW) 1,465 -1.3 -12.2°
Maximum altitude 06:06:02 36° 27° (NNE) 659 -2.4 -11.6°
Drops below altitude 10° 06:09:06 10° 97° (E) 1,457 0.4 -11.0°
Sets 06:11:16 0° 106° (ESE) 2,314 1.4 -10.6°
